Location: Dal�� Lhota
(48.7500°N, 14.0167°E)
Time: 03:27:26
(UTC+00:00)

A-11 Canister half - Pass Details

Date: 30 July 2021
Orbit: 1526 x 1683 km, 47.3° (Epoch: 22 September)

Event Time Altitude Azimuth Distance (km) Brightness Sun altitude
Rises 19:12:34 0° 284° (WNW) 4,828 13.2 -4.7°
Reaches altitude 10° 19:18:55 10° 254° (WSW) 3,793 11.7 -5.6°
Maximum altitude 19:21:25 11° 239° (WSW) 3,674 11.3 -5.9°
Drops below altitude 10° 19:23:54 10° 223° (SW) 3,756 11.1 -6.2°
Sets 19:30:08 0° 193° (SSW) 4,698 11.3 -7.0°
